Location: *
(47.7167°N, 1.7333°W)
Time: 04:36:48
(UTC+00:00)

Cosmos 1607 - Pass Details

Date: 09 April 2020
Orbit: 917 x 985 km, 65.0° (Epoch: 29 May)

Event Time Altitude Azimuth Distance (km) Brightness Sun altitude
Exits shadow 23:12:03 60° 7° (N) 1,066 4.3 -32.9°
Drops below altitude 10° 23:17:16 10° 35° (NE) 2,678 6.7 -33.1°
Sets 23:19:52 0° 38° (NE) 3,637 7.5 -33.2°
